#timestamp,LO_Frequency,Hit 
1504814415.8,286046990.0,N
1504814435.6,286046987.8,N
1504814455.4,286046986.0,N
1504814475.2,286046986.4,N
1504814495.1,286046984.0,N
1504814496.0,286046984.0,P
1504814515.8,286047000.9,N
1504814535.7,286047001.1,N
1504814555.5,286047002.4,N
1504814575.3,286047001.5,N
1504814595.1,286047003.9,N
1504814615.9,286047001.4,N
1504814635.7,286047001.3,N
1504814655.5,286047002.0,N
1504814675.4,286046996.6,N
1504814695.2,286046995.8,N
1504814715.0,286046999.2,N
1504814715.9,286046999.2,N
1504814735.8,286046998.8,N
1504814755.6,286046995.7,N
1504814775.4,286046995.1,N
1504814795.3,286046996.5,N
1504814815.1,286047001.2,N
1504814816.0,286047001.2,N
1504814835.8,286047001.9,N
1504814855.7,286046997.9,N
1504814875.5,286046993.3,N
1504814895.3,286046997.2,N
1504814915.2,286047000.4,N
1504814935.9,286047003.1,N
1504814955.7,286047010.0,N
1504814975.5,286047013.1,N
1504814995.4,286047017.7,P
1504815015.2,286047019.0,N
1504815035.1,286047023.5,N
1504815036.0,286047023.5,N
1504815055.8,286047024.1,N
1504815075.6,286047027.4,P
1504815095.5,286047012.4,N
1504815115.3,286047012.5,N
1504815135.1,286047015.5,N
1504815155.9,286047012.6,N
1504815175.7,286047017.1,P
1504815195.5,286046998.6,P
1504815215.4,286046997.9,N
1504815235.2,286046998.7,N
1504815255.0,286046996.8,N
1504815255.9,286046996.8,N
1504815275.8,286046998.1,N
1504815295.6,286046996.5,N
1504815315.4,286046997.6,N
1504815335.3,286046998.4,N
1504815355.1,286047001.1,N
1504815356.0,286047001.1,N
1504815375.8,286047000.8,N
1504815395.6,286047000.0,N
1504815415.5,286047003.5,N
1504815435.3,286047004.2,N
1504815455.1,286047003.3,N
1504815475.9,286047005.3,N
1504815495.7,286047003.1,N
1504815515.5,286047005.7,N
1504815535.4,286047005.5,N
1504815555.2,286047005.3,N
1504815575.0,286047001.9,N
1504815575.9,286047001.9,N
1504815595.8,286047003.4,N
1504815615.6,286047004.6,N
1504815635.4,286047005.0,N
1504815655.3,286047007.2,N
1504815675.1,286047004.4,N
1504815676.0,286047004.4,N
1504815695.8,286047005.1,N
1504815715.6,286047008.6,N
1504815735.5,286047006.6,N
1504815755.3,286047005.9,N
1504815775.1,286047003.7,N
1504815795.9,286047004.7,N
1504815815.7,286047005.6,N
1504815835.5,286047004.3,N
1504815855.4,286047001.3,N
1504815875.2,286047003.6,N
1504815895.0,286047005.6,N
1504815895.9,286047005.6,N
1504815915.8,286047005.5,N
1504815935.6,286047003.5,N
1504815955.4,286047002.6,N
1504815975.3,286047002.7,N
1504815995.1,286047003.1,N
1504815996.0,286047003.1,N
1504816015.8,286047001.5,N
1504816035.7,286047004.2,N
1504816055.5,286047006.0,P
1504816075.3,286047001.2,N
1504816095.2,286047000.9,N
1504816115.9,286047004.5,N
1504816135.7,286047006.6,P
1504816155.6,286047005.8,P
1504816175.4,286047002.0,N
1504816195.2,286047001.3,N
1504816215.1,286047003.5,N
1504816216.0,286047003.5,N
1504816235.8,286047003.9,N
1504816255.6,286047003.5,N
1504816275.5,286047005.4,P
1504816295.3,286047002.6,P
1504816315.1,286047001.7,N
1504816335.9,286047000.9,N
1504816355.7,286046998.9,N
1504816375.5,286046996.9,N
1504816395.3,286046999.8,N
1504816415.2,286047001.9,N
1504816435.0,286047002.3,N
1504816435.9,286047002.3,N
1504816455.7,286046993.5,N
1504816475.6,286046985.5,P
1504816495.4,286046981.5,N
1504816515.2,286046980.2,N
1504816535.1,286046977.4,N
1504816536.0,286046977.4,N
1504816555.8,286046974.6,P
1504816575.7,286046992.2,N
1504816595.5,286046992.6,N
1504816615.3,286046989.4,N
1504816635.1,286046991.3,N
1504816655.9,286046987.3,N
1504816675.7,286046987.4,N
1504816695.5,286046988.4,N
1504816715.4,286046985.4,N
1504816735.2,286046986.3,N
1504816755.0,286046984.7,P
1504816756.0,286046984.7,P
1504816775.8,286046995.4,P
1504816795.6,286046991.5,N
1504816815.4,286046992.5,N
1504816835.3,286046993.5,N
1504816855.1,286046993.3,N
1504816875.8,286046996.2,N
1504816895.7,286046991.7,N
1504816915.5,286046992.9,N
1504816935.3,286046995.9,N
1504816955.2,286046996.1,N
1504816975.9,286046990.2,N
1504816995.7,286046992.3,N
1504817015.6,286046994.7,N
1504817035.4,286046991.9,N
1504817055.2,286046990.6,N
1504817075.0,286046991.5,N
1504817076.0,286046991.5,N
1504817095.8,286046989.6,P
1504817115.6,286046997.2,N
1504817135.5,286046995.7,N
1504817155.3,286046998.1,N
1504817175.1,286047003.4,N
1504817195.9,286047011.1,N
1504817215.7,286047017.8,N
1504817235.5,286047021.4,N
1504817255.3,286047022.2,N
1504817275.2,286047023.3,N
1504817295.9,286047022.5,N
1504817315.7,286047022.9,N
1504817335.6,286047023.7,N
1504817355.4,286047027.1,N
1504817375.2,286047031.0,N
1504817395.1,286047032.9,N
1504817396.0,286047032.9,N
1504817415.8,286047031.0,N
1504817435.6,286047030.0,N
1504817455.5,286047028.6,N
1504817475.3,286047033.9,N
1504817495.1,286047032.2,N
1504817515.8,286047032.2,N
1504817535.7,286047033.4,N
1504817555.5,286047034.2,N
1504817575.3,286047036.1,N
1504817595.2,286047034.1,N
1504817615.9,286047037.0,N
1504817635.7,286047035.2,N
1504817655.6,286047036.3,N
1504817675.4,286047035.1,N
1504817695.2,286047034.9,N
1504817715.1,286047036.6,P
1504817716.0,286047036.6,P
1504817735.8,286047010.2,N
1504817755.6,286047013.3,N
1504817775.5,286047012.6,N
1504817795.3,286047011.5,N
1504817815.1,286047011.0,N
1504817835.9,286047015.2,N
1504817855.7,286047013.6,N
1504817875.5,286047012.6,N
1504817895.3,286047015.4,N
1504817915.2,286047016.3,N
1504817935.0,286047010.9,N
1504817935.9,286047010.9,N
1504817955.7,286047010.2,N
1504817975.6,286047008.0,N
1504817995.4,286047010.5,N
